Wind_Speed
3 3 4 5 6 6 7 8 9 9 7 5 5 6 6 7 8 8 6 3 2 2 1 3 3 3 8 10 11 13 14 20 24 22 24 22 20 8 11 19 20 23 24 26 27
3 3 3 4 5 5 6 7 8 8 8 7 6 6 5 6 7 8 7 5 4 3 6 5 5 4 6 8 10 12 16 20 17 17 17 19 17 13 20 24 22 24 25 25 25
2 2 2 2 3 4 5 7 7 8 8 7 6 5 4 3 5 6 6 5 4 5 7 9 9 10 11 11 11 13 16 14 12 11 14 16 16 16 19 21 22 21 27 25 28
2 2 2 1 1 1 2 2 4 5 5 5 4 4 3 2 2 2 3 2 1 1 3 5 10 12 13 14 14 16 16 13 13 17 15 20 20 17 14 14 10 17 21 24 23
1 2 2 2 1 1 1 1 1 2 3 3 3 3 3 3 2 1 3 3 2 1 4 4 4 6 11 14 16 15 12 13 12 15 18 17 19 11 9 10 16 21 25 27 27
5 4 2 1 1 1 1 1 1 1 2 3 3 4 4 4 4 3 4 4 3 1 1 2 2 1 5 7 11 8 8 8 12 12 11 11 10 10 15 17 20 23 26 29 30
1 3 6 5 3 2 2 2 2 2 3 4 5 5 5 6 7 6 5 4 4 4 3 4 6 6 5 7 9 12 11 11 11 9 11 10 13 16 20 23 25 27 25 24 24
3 1 1 3 6 5 5 5 5 5 5 5 6 8 8 6 7 8 8 6 6 7 7 8 8 8 8 9 11 11 10 10 10 11 14 16 16 19 20 25 27 29 33 33 33
5 4 2 1 2 4 5 6 7 8 8 8 8 8 8 9 10 10 11 9 10 10 10 11 11 12 11 12 12 11 12 12 14 14 13 12 13 21 27 30 33 35 39 41 42
4 4 3 2 2 3 4 5 7 8 9 10 11 12 12 13 11 12 12 11 11 11 11 13 12 12 10 9 13 13 13 12 14 14 14 19 22 26 30 32 33 33 36 36 38
3 3 3 4 4 5 6 7 8 9 10 10 11 11 11 13 14 13 13 12 12 12 14 16 13 12 9 14 16 16 14 12 14 16 20 25 27 30 32 34 32 31 32 37 40
3 3 4 4 5 6 7 7 9 10 11 12 12 11 11 14 13 12 12 12 12 13 16 17 16 14 17 19 17 15 11 13 14 17 21 25 26 33 34 33 37 34 38 41 43
3 4 5 6 7 7 8 9 10 11 12 13 13 13 14 14 10 14 14 15 16 18 18 19 18 18 18 19 13 12 13 14 17 18 23 26 28 30 32 35 35 36 39 45 50
5 5 6 7 8 8 9 11 12 13 11 9 7 13 17 16 12 11 13 14 16 15 16 21 19 16 16 13 11 15 14 17 18 21 25 29 30 30 32 33 33 35 40 44 51
7 7 7 9 9 10 11 11 12 14 14 11 11 11 12 13 14 13 13 13 13 13 16 20 15 10 15 15 14 15 18 17 20 24 25 30 31 32 33 32 33 36 40 45 51
9 10 10 10 11 11 11 11 13 13 15 12 8 8 10 10 12 15 17 16 16 16 16 17 14 14 14 17 16 19 21 22 26 27 30 30 31 36 30 31 37 41 47 53 59
12 12 12 11 13 13 12 12 14 14 15 15 13 10 7 10 12 12 12 16 14 15 16 17 14 16 14 14 18 24 27 28 30 33 30 26 33 31 34 37 36 35 39 44 49
12 13 14 13 13 13 13 14 16 14 15 13 13 15 14 15 12 7 10 16 13 14 16 17 17 16 18 19 21 25 30 32 36 37 37 34 34 35 34 38 41 43 46 47 46
10 13 14 14 15 14 14 16 17 15 13 14 13 16 17 19 17 15 13 17 11 14 18 18 17 20 22 22 26 29 30 34 38 39 40 38 37 36 35 41 45 47 49 48 47
13 13 16 18 19 17 18 20 19 15 12 15 15 16 18 19 18 18 19 14 12 12 17 18 16 23 24 27 31 34 33 34 36 40 40 38 37 39 37 40 46 48 47 46 42
17 17 19 21 22 22 22 22 23 19 16 20 18 16 17 19 19 21 24 20 17 16 18 19 24 22 27 32 35 33 35 38 38 37 38 41 39 39 42 45 46 46 45 42 37
23 23 22 25 26 23 21 21 22 22 19 20 21 21 20 18 20 21 24 27 26 26 26 26 32 31 29 32 35 36 34 34 33 34 36 38 41 40 46 46 46 45 41 37 35
25 26 29 26 23 20 18 21 20 22 22 20 22 23 21 21 22 23 25 28 28 28 28 28 31 33 29 34 34 31 28 31 36 36 36 41 41 45 48 47 45 42 41 40 39
26 30 30 26 21 20 21 22 22 22 21 22 21 22 21 22 24 26 26 29 28 27 27 30 31 32 32 31 33 27 30 33 37 39 40 40 44 44 45 43 42 41 44 44 43
30 28 28 29 22 19 22 23 23 25 23 18 20 23 23 22 24 28 29 29 29 29 28 28 29 28 28 30 31 28 33 34 35 36 42 43 40 41 40 42 43 45 45 47 49
32 29 28 25 26 24 23 25 24 23 23 25 22 23 22 24 27 29 30 31 30 29 27 22 23 24 22 28 30 29 36 35 35 39 41 39 36 37 39 41 44 47 48 48 46
30 29 28 27 27 26 28 26 22 20 25 24 24 27 24 25 26 26 25 26 29 27 28 25 23 25 22 26 27 31 35 35 35 37 37 35 33 35 38 41 45 46 48 48 48
Wind_Direction
180 173 154 136 157 182 197 200 197 197 205 223 259 285 276 257 238 231 247 238 238 299 349 53 84 172 183 190 200 203 206 226 234 240 248 258 272 283 281 290 296 289 292 295 288
157 163 176 188 190 192 200 209 212 221 236 254 282 293 277 252 234 222 236 249 244 218 214 203 190 186 186 193 196 208 212 227 237 249 258 262 274 275 290 300 301 287 296 288 293
115 125 134 164 192 214 230 236 241 249 258 269 275 275 271 228 218 214 220 240 246 220 208 208 218 210 225 208 223 223 235 237 242 266 268 269 285 296 291 291 301 296 291 293 296
113 119 120 121 161 204 227 230 237 247 255 253 252 249 232 201 175 216 203 210 209 289 245 238 220 224 226 238 224 232 246 254 260 254 274 284 288 294 292 302 311 295 294 293 297
170 120 129 149 157 168 203 213 234 241 243 246 243 226 212 212 185 203 212 169 166 85 9 336 280 253 238 234 241 256 259 261 258 253 259 268 271 277 276 297 298 299 299 300 301
238 239 232 165 180 229 255 257 246 239 230 229 228 228 235 218 210 228 249 237 223 180 157 15 344 304 234 210 211 216 233 236 249 256 259 255 261 279 289 287 284 286 288 291 294
257 248 248 250 259 265 279 289 285 272 256 251 245 246 255 271 251 231 256 258 268 256 233 180 210 194 166 210 208 206 209 216 227 229 231 249 266 278 293 296 302 297 291 291 299
41 13 273 258 258 262 271 281 285 283 278 276 265 260 256 253 256 253 246 242 247 247 238 229 216 219 211 222 229 230 231 239 248 243 246 237 268 270 299 305 305 307 310 312 310
48 49 44 360 305 287 278 280 282 278 276 275 270 268 266 255 256 258 253 243 242 236 242 240 230 227 223 231 254 264 277 277 259 252 269 285 306 319 316 313 312 309 309 311 311
29 22 16 10 341 323 316 308 299 293 288 282 275 270 264 257 252 248 248 244 242 245 246 247 250 251 257 260 243 246 249 260 274 300 317 320 318 313 305 300 301 303 299 299 299
353 349 344 337 331 322 317 312 304 300 295 290 282 275 261 259 252 251 249 249 248 252 252 252 248 250 240 241 238 239 245 267 298 318 317 307 297 297 299 301 305 294 292 295 301
339 334 331 324 323 320 313 311 308 304 299 291 286 281 264 256 248 248 249 249 250 245 253 256 259 250 236 232 237 248 261 278 289 283 283 288 299 299 305 302 304 294 299 304 304
310 314 317 320 318 317 317 314 307 306 293 289 291 282 268 262 248 249 243 245 241 242 250 256 253 244 239 235 242 261 264 269 272 276 284 297 300 307 303 306 303 307 307 307 307
291 298 305 310 312 314 315 318 317 303 297 290 286 261 263 262 257 246 246 246 248 249 251 250 245 238 240 247 245 257 273 279 290 293 303 309 308 307 306 305 307 300 297 297 297
293 299 307 308 308 311 315 313 311 309 300 288 278 271 271 261 251 251 248 247 246 234 233 249 245 233 240 248 252 263 270 289 294 297 304 308 311 313 309 307 299 287 283 284 288
290 297 301 304 301 305 309 312 311 310 304 300 286 287 299 282 258 243 252 252 246 237 233 250 254 249 248 255 266 274 284 290 294 302 306 311 311 309 302 296 287 282 280 282 285
293 294 293 296 295 298 299 299 301 303 315 324 327 302 299 293 280 249 225 244 241 241 234 239 242 243 246 266 280 282 289 297 299 305 307 308 304 303 301 299 299 295 293 288 289
298 299 299 296 294 293 288 286 287 301 306 312 313 311 315 309 295 228 218 241 231 228 233 238 245 256 263 267 281 286 293 299 305 310 311 311 306 306 305 302 303 305 306 304 299
308 305 301 298 293 291 285 277 281 292 299 292 288 284 283 285 284 271 239 244 222 218 233 240 254 271 277 291 290 293 304 306 305 307 307 307 306 303 310 308 305 308 311 312 310
301 302 303 299 289 286 282 281 283 287 277 275 279 276 281 283 282 283 276 265 262 231 237 253 264 277 288 292 292 299 301 299 300 302 303 304 308 311 310 302 300 309 310 308 307
291 292 299 297 291 282 280 284 283 281 266 271 272 271 275 277 282 279 280 276 272 268 264 274 276 280 286 285 291 294 297 300 302 301 303 307 307 307 303 300 305 308 315 313 309
289 292 297 295 284 281 282 278 280 279 270 258 264 265 268 275 280 280 280 282 281 280 281 282 286 287 284 286 289 293 296 295 292 293 296 297 299 303 299 304 311 318 316 312 309
285 292 299 299 290 275 274 275 274 276 275 271 267 262 266 265 266 270 278 281 284 285 289 292 284 285 284 289 290 291 293 290 291 298 303 301 309 300 304 310 315 315 310 310 304
282 293 293 296 288 278 276 278 276 273 267 263 270 270 265 265 269 269 271 275 280 287 292 283 284 288 293 295 293 299 299 299 300 304 303 301 301 304 307 311 310 308 307 307 303
284 285 285 295 286 272 273 275 277 279 276 268 262 261 270 273 274 274 272 271 271 273 274 278 284 285 286 287 290 295 292 293 296 296 295 301 304 305 306 309 308 308 305 303 304
281 280 281 283 282 283 276 272 273 277 278 278 272 270 267 267 266 271 269 273 276 277 276 274 274 275 279 282 292 295 292 295 297 298 299 306 304 305 309 309 305 304 304 304 304
272 274 277 287 282 278 278 281 278 276 275 281 281 281 277 271 267 271 275 272 277 282 285 292 284 282 283 287 290 293 292 298 300 302 304 306 305 306 305 304 304 306 306 307 307
Height
5867 5867 5868 5868 5869 5870 5871 5872 5873 5874 5875 5876 5876 5876 5875 5875 5875 5875 5875 5876 5876 5876 5875 5875 5873 5873 5874 5877 5879 5881 5886 5884 5886 5890 5892 5893 5893 5894 5893 5892 5893 5891 5891 5889 5887
5866 5867 5867 5868 5869 5870 5870 5871 5872 5873 5874 5874 5874 5874 5873 5873 5873 5873 5874 5874 5874 5875 5875 5875 5875 5876 5876 5877 5879 5880 5882 5883 5886 5889 5892 5891 5892 5893 5891 5889 5889 5887 5887 5883 5881
5866 5867 5867 5868 5868 5869 5870 5870 5871 5871 5872 5872 5873 5873 5872 5872 5872 5872 5873 5873 5873 5873 5873 5873 5874 5875 5876 5877 5879 5879 5880 5883 5885 5885 5886 5887 5888 5887 5886 5886 5885 5883 5880 5878 5877
5866 5867 5867 5868 5868 5868 5868 5869 5869 5870 5871 5871 5871 5871 5871 5871 5873 5872 5872 5872 5872 5872 5871 5871 5872 5872 5874 5876 5877 5878 5878 5881 5883 5882 5882 5881 5881 5883 5882 5884 5882 5879 5876 5874 5876
5866 5867 5867 5867 5867 5868 5868 5868 5868 5869 5869 5870 5870 5870 5871 5871 5871 5872 5872 5871 5872 5872 5872 5872 5872 5873 5874 5875 5875 5876 5877 5877 5879 5879 5879 5879 5878 5881 5880 5882 5880 5877 5874 5871 5871
5865 5866 5866 5866 5866 5867 5867 5867 5867 5868 5868 5869 5869 5869 5869 5871 5870 5871 5871 5870 5870 5871 5871 5871 5871 5871 5873 5873 5873 5873 5873 5875 5875 5876 5877 5877 5877 5877 5877 5879 5877 5875 5871 5868 5866
5864 5864 5865 5865 5865 5865 5866 5866 5866 5867 5867 5868 5868 5868 5868 5869 5869 5869 5869 5869 5869 5868 5868 5868 5870 5870 5870 5870 5870 5870 5871 5871 5873 5874 5874 5874 5874 5874 5873 5871 5868 5866 5864 5864 5862
5863 5863 5863 5864 5864 5864 5864 5865 5865 5866 5866 5866 5866 5866 5866 5866 5866 5867 5867 5867 5867 5867 5867 5868 5868 5868 5867 5868 5868 5869 5870 5870 5871 5871 5873 5873 5873 5872 5868 5863 5861 5857 5853 5853 5853
5863 5863 5863 5862 5863 5862 5863 5863 5863 5863 5864 5864 5864 5863 5864 5863 5864 5864 5864 5864 5864 5864 5864 5865 5865 5865 5865 5865 5866 5867 5867 5868 5868 5868 5869 5869 5866 5863 5860 5855 5851 5849 5843 5841 5838
5862 5862 5862 5862 5861 5861 5861 5861 5861 5861 5861 5861 5861 5862 5861 5860 5860 5860 5860 5861 5861 5861 5862 5861 5862 5862 5863 5864 5864 5864 5863 5863 5862 5863 5861 5859 5859 5857 5854 5850 5848 5845 5839 5835 5831
5862 5861 5861 5861 5860 5860 5860 5860 5860 5859 5858 5858 5858 5857 5856 5856 5856 5857 5856 5857 5858 5858 5858 5857 5858 5860 5859 5860 5860 5859 5859 5859 5858 5858 5858 5855 5854 5851 5847 5843 5841 5836 5832 5828 5821
5860 5860 5859 5859 5859 5858 5858 5857 5857 5857 5855 5854 5854 5854 5852 5853 5853 5853 5854 5854 5855 5854 5853 5855 5855 5856 5855 5856 5855 5855 5856 5857 5857 5856 5854 5851 5850 5842 5840 5837 5833 5829 5823 5817 5811
5858 5858 5858 5857 5856 5856 5855 5854 5853 5853 5853 5850 5850 5849 5849 5849 5849 5848 5850 5850 5850 5850 5851 5851 5853 5852 5852 5851 5853 5853 5853 5852 5853 5853 5848 5846 5842 5838 5833 5829 5824 5818 5811 5807 5802
5857 5856 5856 5855 5856 5853 5852 5852 5850 5850 5850 5850 5847 5845 5844 5844 5846 5845 5845 5846 5846 5848 5849 5847 5848 5848 5848 5849 5850 5848 5849 5849 5847 5845 5843 5839 5836 5832 5828 5822 5816 5809 5804 5800 5794
5855 5854 5853 5852 5852 5851 5850 5849 5848 5847 5846 5846 5844 5842 5840 5841 5841 5840 5841 5841 5842 5842 5844 5843 5844 5845 5844 5845 5846 5846 5844 5844 5842 5839 5837 5833 5827 5822 5818 5814 5809 5805 5801 5795 5789
5852 5852 5851 5850 5849 5848 5847 5845 5845 5844 5841 5841 5840 5838 5837 5835 5836 5837 5836 5837 5838 5839 5839 5840 5841 5842 5842 5841 5842 5840 5839 5838 5835 5833 5830 5825 5821 5816 5813 5808 5802 5799 5794 5787 5782
5849 5848 5847 5846 5845 5845 5844 5842 5842 5839 5839 5837 5835 5835 5834 5833 5832 5832 5833 5831 5834 5836 5836 5835 5837 5836 5838 5839 5837 5834 5832 5831 5829 5826 5824 5818 5813 5808 5805 5800 5796 5792 5787 5781 5776
5846 5845 5844 5843 5842 5841 5840 5840 5838 5837 5836 5835 5832 5831 5829 5829 5828 5828 5828 5827 5830 5831 5832 5832 5833 5834 5833 5833 5832 5829 5826 5824 5818 5815 5812 5809 5805 5801 5795 5790 5785 5780 5774 5770 5764
5843 5841 5840 5839 5838 5837 5836 5835 5833 5833 5833 5831 5831 5829 5828 5827 5826 5825 5825 5823 5826 5828 5829 5828 5829 5827 5826 5827 5825 5822 5821 5816 5810 5806 5802 5799 5796 5791 5787 5778 5772 5769 5764 5756 5749
5840 5838 5836 5835 5834 5832 5831 5829 5830 5830 5829 5828 5828 5826 5825 5823 5824 5823 5821 5823 5824 5826 5825 5825 5826 5823 5822 5820 5816 5814 5813 5810 5805 5799 5795 5792 5786 5779 5778 5771 5765 5761 5755 5748 5742
5835 5834 5832 5830 5828 5827 5825 5824 5824 5825 5826 5823 5823 5822 5820 5819 5819 5818 5817 5818 5819 5820 5821 5820 5820 5822 5818 5813 5811 5810 5804 5799 5796 5792 5785 5779 5779 5774 5768 5763 5759 5755 5748 5739 5732
5828 5827 5827 5824 5822 5821 5821 5819 5817 5817 5818 5818 5817 5817 5816 5816 5814 5814 5812 5811 5813 5813 5814 5815 5811 5811 5812 5808 5803 5800 5797 5793 5788 5785 5780 5774 5771 5766 5756 5753 5749 5742 5736 5729 5723
5821 5821 5818 5817 5815 5814 5814 5812 5812 5812 5811 5811 5810 5811 5812 5811 5810 5808 5807 5806 5806 5806 5806 5806 5803 5800 5802 5798 5795 5792 5790 5785 5779 5775 5772 5763 5760 5750 5746 5742 5737 5732 5725 5719 5712
5815 5813 5810 5810 5809 5807 5806 5806 5805 5805 5805 5804 5804 5803 5805 5806 5804 5803 5802 5800 5800 5800 5799 5796 5793 5791 5790 5787 5784 5784 5780 5773 5768 5764 5760 5757 5751 5745 5739 5734 5729 5722 5715 5709 5702
5808 5807 5804 5802 5802 5802 5800 5799 5797 5796 5797 5799 5798 5798 5799 5799 5797 5795 5794 5794 5793 5792 5791 5790 5787 5785 5782 5779 5777 5776 5771 5768 5764 5759 5751 5749 5743 5737 5731 5725 5718 5711 5705 5698 5691
5799 5799 5799 5798 5795 5794 5793 5792 5791 5791 5791 5789 5791 5791 5792 5791 5788 5786 5785 5783 5784 5784 5783 5783 5781 5778 5778 5772 5771 5769 5761 5760 5756 5749 5743 5740 5735 5729 5723 5715 5708 5702 5696 5690 5683
5791 5791 5791 5790 5788 5788 5785 5786 5786 5786 5783 5784 5784 5781 5782 5781 5780 5780 5778 5777 5775 5774 5772 5773 5772 5771 5771 5768 5766 5762 5755 5752 5748 5742 5737 5732 5727 5722 5716 5708 5701 5694 5686 5680 5673